Weather History for Pittsburgh Allegheny Co., PA

Change the Weather History Date:

Monday, May 27, 2013

  Actual Average Record
Temperature  
Mean Temperature 53 °F -  
Max Temperature 62 °F 69 °F 91 °F (2012)
Min Temperature 45 °F 49 °F 36 °F (1992)
Degree Days  
Heating Degree Days 12    
Growing Degree Days 3 (Base 50)    
Moisture  
Dew Point 41 °F    
Average Humidity 58    
Maximum Humidity 80    
Minimum Humidity 41    
Precipitation  
Precipitation 0.00 in - - ()
Sea Level Pressure  
Sea Level Pressure 30.23 in    
Wind  
Wind Speed 3 mph (SE)    
Max Wind Speed 8 mph    
Max Gust Speed -    
Visibility 10 miles    
Events      
Averages and records for this station are not official NWS values.
T = Trace of Precipitation, MM = Missing Value Source: NWS Daily Summary

Daily Weather History Graph

Daily Weather History Graph

Search for Another Location

Airport:

Trip Planner

Search our weather history database for the weather conditions in past years. The results will help you decide how hot, cold, wet, or windy it might be!

Date:

Astronomy

May. 27, 2013 Rise Set
Actual Time 5:54 AM EDT 8:39 PM EDT
Civil Twilight 5:22 AM EDT 9:12 PM EDT
Nautical Twilight 4:42 AM EDT 9:52 PM EDT
Astronomical Twilight 3:56 AM EDT 10:38 PM EDT
Moon 11:17 PM EDT (5/27) 8:29 AM EDT (5/27)
Length of Visible Light 15h 49m
Length of Day
14h 45m
Waning Gibbous, 91% of the Moon is Illuminated
May 27
Waning Gibbous
May 31
Last Quarter
Jun 8
New
Jun 16
First Quarter
Jun 23
Full

Hourly Weather History & Observations

Time (EDT) Temp. Windchill Dew Point Humidity Pressure Visibility Wind Dir Wind Speed Gust Speed Precip Events Conditions
12:53 AM 54.0 °F - 30.9 °F 41% 30.27 in 10.0 mi North 3.5 mph - N/A   Clear
1:53 AM 53.1 °F - 30.0 °F 41% 30.28 in 10.0 mi Calm Calm - N/A   Clear
2:53 AM 51.1 °F - 33.1 °F 50% 30.27 in 10.0 mi Calm Calm - N/A   Clear
3:53 AM 45.0 °F 42.6 °F 39.0 °F 80% 30.28 in 10.0 mi SE 4.6 mph - N/A   Clear
4:53 AM 48.0 °F - 37.9 °F 68% 30.27 in 10.0 mi Calm Calm - N/A   Clear
5:53 AM 46.0 °F - 37.9 °F 73% 30.27 in 10.0 mi Calm Calm - N/A   Clear
6:53 AM 46.9 °F - 39.9 °F 77% 30.28 in 10.0 mi Calm Calm - N/A   Clear
7:53 AM 50.0 °F - 39.9 °F 68% 30.28 in 10.0 mi Calm Calm - N/A   Clear
8:53 AM 53.1 °F - 39.0 °F 59% 30.29 in 10.0 mi Calm Calm - N/A   Clear
9:53 AM 55.9 °F - 39.0 °F 53% 30.28 in 10.0 mi SE 5.8 mph - N/A   Clear
10:53 AM 59.0 °F - 39.0 °F 48% 30.28 in 10.0 mi South 4.6 mph - N/A   Clear
11:53 AM 59.0 °F - 39.0 °F 48% 30.28 in 10.0 mi South 3.5 mph - N/A   Partly Cloudy
12:53 PM 60.1 °F - 37.9 °F 44% 30.27 in 10.0 mi Calm Calm - N/A   Mostly Cloudy
1:53 PM 61.0 °F - 42.1 °F 50% 30.26 in 10.0 mi SSW 3.5 mph - N/A   Scattered Clouds
2:53 PM 60.1 °F - 43.0 °F 53% 30.23 in 10.0 mi SSW 8.1 mph - N/A   Overcast
3:53 PM 60.1 °F - 44.1 °F 55% 30.23 in 10.0 mi South 4.6 mph - N/A   Overcast
4:53 PM 60.1 °F - 43.0 °F 53% 30.20 in 10.0 mi South 6.9 mph - N/A   Mostly Cloudy
5:53 PM 60.1 °F - 44.1 °F 55% 30.20 in 10.0 mi Calm Calm - N/A   Overcast
6:53 PM 60.1 °F - 44.1 °F 55% 30.16 in 10.0 mi East 8.1 mph - N/A   Mostly Cloudy
7:53 PM 59.0 °F - 45.0 °F 60% 30.17 in 10.0 mi East 6.9 mph - N/A   Partly Cloudy
8:53 PM 57.9 °F - 46.9 °F 67% 30.15 in 10.0 mi East 6.9 mph - N/A   Clear
9:53 PM 57.9 °F - 46.9 °F 67% 30.14 in 10.0 mi ESE 6.9 mph - N/A   Clear
10:53 PM 57.0 °F - 46.9 °F 69% 30.14 in 10.0 mi East 3.5 mph - N/A   Overcast
11:53 PM 57.9 °F - 46.9 °F 67% 30.12 in 10.0 mi SE 6.9 mph - 0.00 in   Partly Cloudy